Location: Goheenville
(40.9070°N, 79.3720°W)
Time: 23:34:47
(UTC-04:00)

Daily predictions for brighter satellites

Satellite Brightness Start Highest point End
(mag) Time Altitude Azimuth Time Altitude Azimuth Time Altitude Azimuth
Cosmos 1242 Rocket 4.4 21:22:29 10° NNE 21:25:09 18° ENE 21:27:47 10° ESE
Cosmos 2297 Rocket 2.3 21:22:20 10° SSW 21:27:59 89° ESE 21:33:41 10° NNE
Meteor 2-15 4.4 21:22:11 10° S 21:28:11 74° E 21:34:16 10° NNE
Resurs 01 Rocket 3.4 21:25:25 10° SSW 21:29:21 32° W 21:33:18 10° NNW
Cosmos 1939 Rocket 3.0 21:29:19 10° S 21:33:17 80° WSW 21:37:22 10° NNW
Cosmos 1867 4.2 21:30:49 10° S 21:35:42 35° ESE 21:40:38 10° NE
Cosmos 1023 Rocket 4.5 21:31:23 10° SSW 21:36:33 87° ESE 21:41:41 10° NNE
Cosmos 1340 Rocket 2.8 21:40:11 10° S 21:44:10 80° E 21:48:15 10° NNE
Spot 1 4.3 21:43:49 10° S 21:47:50 64° WSW 21:52:01 10° NNW
ATLAS 5 CENTAUR R/B 1.7 21:43:54 10° SSW 21:48:27 64° ESE 21:53:25 10° NE
Cosmos 2173 Rocket 4.3 21:46:23 10° N 21:52:21 50° ENE 21:58:06 11° SSE
Cosmos 1850 Rocket 3.9 21:47:49 10° S 21:52:56 69° ESE 21:58:07 10° NNE
SPOT 5 3.7 21:49:06 12° SE 21:53:11 38° ENE 21:57:49 10° N
Lacrosse 5 3.3 21:49:25 10° NNW 21:53:50 29° NNE 21:58:13 10° E
Cosmos 2084 3.3 21:50:53 10° SSW 21:54:48 52° ESE 21:58:35 10° NE
YAOGAN 6 3.0 21:51:50 10° S 21:55:25 63° W 21:59:04 10° NNW
Cosmos 614 Rocket 4.2 21:50:16 10° SSW 21:55:29 78° WNW 22:00:43 10° NNE
Cosmos 2237 Rocket 3.3 21:51:35 10° NW 21:56:50 41° WSW 22:02:03 10° S
Cosmos 1726 3.8 21:54:14 10° NNE 21:56:55 19° ENE 21:58:49 13° ESE
Helios 1B rocket 3.4 21:53:07 10° N 21:57:10 51° WNW 22:01:10 10° SSW
Helios 1A 4.1 21:54:03 10° S 21:57:59 42° W 22:01:57 10° NNW
CZ-4B DEB 3.7 21:55:34 10° S 21:58:24 41° W 22:01:15 10° NNW
USA 234 3.3 21:52:58 10° NE 21:59:24 56° SE 22:05:46 10° SSW
CZ-3B R/B 3.8 21:59:51 10° SSW 22:02:40 58° SE 22:11:35 10° NE
H-2A R/B 2.9 22:00:47 14° SE 22:04:48 37° ENE 22:09:44 10° N
Atlas Centaur 2 2.9 22:03:48 10° SW 22:05:47 14° S 22:06:40 13° S
ERS-1 Rocket 3.0 22:01:47 10° SSE 22:06:49 86° WSW 22:11:54 10° NNW
Cosmos 1802 Rocket 4.1 22:04:57 10° N 22:11:02 61° E 22:16:08 15° SSE
Abrixas rocket 4.4 22:08:23 10° NW 22:11:04 23° N 22:13:46 10° ENE
Cosmos 2227 Rocket 4.1 22:06:32 10° WSW 22:11:37 33° WNW 22:16:42 10° N
Cosmos 1818 3.6 22:06:38 10° NNW 22:12:07 88° ENE 22:16:16 18° SSE
Lacrosse 4 Rocket 4.4 22:11:29 10° W 22:14:45 21° NW 22:18:06 10° N
Cosmos 1674 2.6 22:13:03 10° S 22:16:50 87° W 22:20:37 10° N
Cosmos 1908 3.2 22:13:09 10° N 22:17:03 87° W 22:20:03 16° S
Cosmos 1741 Rocket 4.2 22:11:55 10° SSW 22:17:13 75° WNW 22:22:33 10° NNE
SL-16 R/B 2.5 22:14:48 10° NNW 22:20:25 65° WSW 22:25:10 15° S
Meteor 2-17 Rocket 4.5 22:17:25 10° N 22:23:37 87° W 22:29:08 13° S
ARGOS 3.1 22:20:18 16° SSE 22:24:42 84° ENE 22:30:09 10° NNW
Cosmos 1408 Rocket 3.4 22:23:36 15° S 22:27:05 71° E 22:31:24 10° NNE
MetOp-A 4.3 22:22:20 13° S 22:27:06 72° WSW 22:32:28 10° NNW
KORONAS-FOTON 3.7 22:24:12 15° S 22:27:20 82° E 22:31:09 10° N
Cosmos 1356 Rocket 3.8 22:28:09 10° SSW 22:32:21 66° W 22:36:38 10° N
Cosmos 1076 Rocket 4.0 22:28:24 10° SSW 22:32:43 61° W 22:37:04 10° N
Tiangong 1 1.2 22:32:09 10° W 22:34:55 59° N 22:36:45 18° ENE
DMSP B5D2-2 4.4 22:32:17 10° NNE 22:37:19 45° E 22:40:08 24° SSE
Terra 2.7 22:36:22 22° ESE 22:38:39 35° ENE 22:42:58 10° N
Cosmos 2058 4.3 22:38:51 22° ESE 22:39:35 23° E 22:42:54 10° NE
Cosmos 2016 Rocket 4.0 22:36:45 10° N 22:43:03 90° NW 22:47:31 20° S
Cosmos 2221 4.1 22:40:38 10° NNW 22:44:32 32° W 22:48:25 10° SSW
Cosmos 1500 Rocket 4.2 22:45:14 30° SE 22:46:44 40° E 22:50:54 10° NNE
Cosmos 332 Rocket 3.8 22:47:23 10° NNW 22:52:18 72° ENE 22:54:33 32° SSE
ERBS 3.9 22:50:20 10° NNW 22:53:19 28° NE 22:54:40 21° ENE
Cosmos 2227 4.3 22:48:33 10° SSW 22:54:17 81° WNW 23:00:02 10° NNE
Cosmos 2151 3.6 22:54:01 34° SE 22:55:02 39° E 22:59:04 10° NNE
Cosmos 1814 Rocket 4.1 22:50:22 10° NNW 22:55:42 67° ENE 22:58:11 32° SE
CARTOSAT-1 3.9 22:55:32 34° SE 22:57:03 52° ENE 23:01:15 10° N
RESURS DK-1 2.3 22:53:45 10° NNW 22:57:56 82° ENE 22:59:21 41° SSE
SL-08 RB Rocket 4.3 22:56:04 22° SSW 22:58:47 52° W 23:03:17 10° NNW
Cosmos 1486 Rocket 4.1 22:57:03 28° S 22:59:35 55° ESE 23:04:46 10° NNE
SPOT 1/Viking Rocket 3.7 22:56:35 25° S 22:59:37 69° WSW 23:04:46 10° NNW
Cosmos 1242 Rocket 4.5 22:56:59 10° NW 23:00:07 26° W 23:02:30 14° SW
Meteor 2-2 Rocket 4.3 22:58:02 10° NNW 23:03:49 81° W 23:07:11 27° S
EO 1 Delta rocket 4.1 23:04:01 25° S 23:06:40 62° W 23:11:15 10° NNW
Cosmos 2233 Rocket 4.1 23:02:20 10° N 23:08:31 63° E 23:11:20 33° SSE
Cosmos 841 Rocket 3.8 23:04:06 10° N 23:09:15 53° ENE 23:11:13 34° SE
Cosmos 1328 Rocket 3.6 23:06:52 10° NNW 23:11:12 70° W 23:12:49 36° SSW
SL-14 R/B 3.6 23:10:43 29° SSW 23:12:33 63° W 23:16:29 10° N
Cosmos 2228 Rocket 3.2 23:08:05 10° N 23:12:40 75° W 23:14:28 37° S
Cosmos 1763 Rocket 3.4 23:07:38 10° NNW 23:12:46 73° ENE 23:14:35 40° SE
Cosmos 1515 Rocket 3.4 23:10:24 10° N 23:14:46 89° WSW 23:16:02 46° S
Cosmos 1328 4.4 23:15:50 28° SSW 23:17:44 56° W 23:21:44 10° N
H-2A R/B 2.1 23:17:20 48° SE 23:18:26 69° ENE 23:22:41 10° N
Cosmos 1743 Rocket 3.8 23:16:55 29° SSW 23:18:58 64° W 23:23:17 10° N
Cosmos 1151 Rocket 2.9 23:19:24 10° N 23:23:49 87° E 23:24:51 52° S
Cosmos 2263 Rocket 2.1 23:21:44 36° S 23:23:52 63° ESE 23:29:23 10° NNE
Cosmos 1300 3.6 23:20:16 10° NNW 23:23:54 42° W 23:25:01 33° SW
Cosmos 1626 2.1 23:25:43 64° E 23:25:45 64° E 23:29:27 10° NNE
Cosmos 1447 Rocket 4.5 23:24:35 31° S 23:27:51 85° E 23:34:16 10° N
SL-19 R/B 4.1 23:23:02 10° NNE 23:28:23 82° ESE 23:30:50 35° S
Cosmos 1726 3.9 23:29:11 10° NW 23:32:11 24° W 23:33:27 20° WSW
ATLAS 5 CENTAUR R/B 4.5 23:30:01 10° W 23:33:39 21° NW 23:37:31 10° N
IGS 5A 3.7 23:33:58 48° SSW 23:34:50 60° W 23:38:58 10° NNW
Lacrosse 5 2.0 23:32:07 10° NW 23:37:07 61° SW 23:38:08 50° S
Meteor 2-12 Rocket 4.3 23:32:12 10° N 23:38:18 89° ENE 23:40:35 41° S
USA 234 4.2 23:36:06 10° NE 23:42:18 47° NNW 23:48:29 10° WSW
Cosmos 371 Rocket 4.0 23:38:32 10° NNW 23:43:07 44° WSW 23:44:22 36° SW
H-2A R/B 3.6 23:41:25 18° SW 23:44:13 29° W 23:48:52 10° NW
Cosmos 1503 Rocket 3.9 23:43:58 52° S 23:45:11 73° ESE 23:50:22 10° NNE
Abrixas rocket 3.0 23:44:58 10° WNW 23:47:34 50° NNW 23:47:34 50° NNW
Cosmos 2285 Rocket 4.1 23:42:07 10° NNW 23:48:27 70° ENE 23:50:38 43° SE
PSLV R/B 4.5 23:49:41 36° NW 23:49:41 36° NW 23:51:37 10° NNW
Cosmos 1869 4.2 23:46:50 10° N 23:50:18 36° ENE 23:50:18 36° ENE
CZ-4C R/B 3.4 23:53:11 72° ESE 23:53:28 76° ENE 23:57:49 10° N
